When you browse on this site, cookies collect data to enhance your experience and personalize the content and advertising you see.
Visit our Privacy Policy to learn more. By continuing to use the site, you agree to this use of cookies and data.
  • En España
  • Lista de países
  • Para 7 días
  • Temperatura del agua
  • Mapa Satelital
  • El tiempo en el mapa
  • Informadores
  • user-avatar
    Iniciar sesión

    Tiempo cada hora Ayutla

    Hoy, 22 Abril, Lunes

    Tiempo Temperatura Precipitaciones Viento Presión Humedad
    00:00 +27°C° 0 mm 1 mps 663 mmHg 39%
    01:00 +26°C° 0 mm 1 mps 662 mmHg 41%
    02:00 +23°C° 0 mm 0 mps 662 mmHg 44%
    03:00 +23°C° 0 mm 0 mps 662 mmHg 45%
    04:00 +22°C° 0 mm 0 mps 662 mmHg 47%
    05:00 +22°C° 0 mm 0 mps 662 mmHg 48%
    06:00 +24°C° 0 mm 0 mps 662 mmHg 43%
    07:00 +28°C° 0 mm 1 mps 663 mmHg 39%
    08:00 +30°C° 0 mm 1 mps 663 mmHg 34%
    09:00 +31°C° 0 mm 1 mps 663 mmHg 30%
    10:00 +34°C° 0 mm 2 mps 663 mmHg 26%
    11:00 +36°C° 0 mm 2 mps 663 mmHg 22%
    12:00 +37°C° 0 mm 2 mps 663 mmHg 20%
    13:00 +38°C° 0 mm 2 mps 662 mmHg 18%
    14:00 +39°C° 0 mm 2 mps 662 mmHg 16%
    15:00 +39°C° 0 mm 2 mps 662 mmHg 16%
    16:00 +38°C° 0 mm 2 mps 662 mmHg 16%
    17:00 +37°C° 0 mm 2 mps 661 mmHg 16%
    18:00 +35°C° 0 mm 2 mps 662 mmHg 19%
    19:00 +32°C° 0 mm 1 mps 662 mmHg 21%
    20:00 +31°C° 0 mm 1 mps 662 mmHg 24%
    21:00 +30°C° 0 mm 1 mps 662 mmHg 27%
    22:00 +29°C° 0 mm 1 mps 662 mmHg 30%
    23:00 +28°C° 0 mm 1 mps 662 mmHg 34%

    Mañana, 23 Abril, Martes

    Tiempo Temperatura Precipitaciones Viento Presión Humedad
    00:00 +27°C° 0 mm 1 mps 662 mmHg 36%
    01:00 +26°C° 0 mm 1 mps 661 mmHg 39%
    02:00 +24°C° 0 mm 0 mps 661 mmHg 42%
    03:00 +23°C° 0 mm 0 mps 661 mmHg 44%
    04:00 +22°C° 0 mm 0 mps 661 mmHg 46%
    05:00 +22°C° 0 mm 0 mps 661 mmHg 48%
    06:00 +24°C° 0 mm 0 mps 661 mmHg 44%
    07:00 +28°C° 0 mm 1 mps 662 mmHg 40%
    08:00 +30°C° 0 mm 1 mps 663 mmHg 36%
    09:00 +31°C° 0 mm 1 mps 663 mmHg 32%
    10:00 +34°C° 0 mm 2 mps 663 mmHg 28%
    11:00 +35°C° 0 mm 2 mps 663 mmHg 25%
    12:00 +36°C° 0 mm 2 mps 662 mmHg 23%
    13:00 +37°C° 0 mm 2 mps 661 mmHg 21%
    14:00 +38°C° 0 mm 3 mps 661 mmHg 19%
    15:00 +37°C° 0 mm 2 mps 661 mmHg 19%
    16:00 +37°C° 0 mm 2 mps 660 mmHg 18%
    17:00 +36°C° 0 mm 2 mps 660 mmHg 18%
    18:00 +35°C° 0 mm 2 mps 661 mmHg 20%
    19:00 +32°C° 0 mm 2 mps 661 mmHg 22%
    20:00 +30°C° 0 mm 2 mps 661 mmHg 24%
    21:00 +29°C° 0 mm 1 mps 661 mmHg 27%
    22:00 +29°C° 0 mm 1 mps 661 mmHg 29%
    23:00 +28°C° 0 mm 1 mps 661 mmHg 31%

    Pasado mañana, 24 Abril, Miércoles

    Tiempo Temperatura Precipitaciones Viento Presión Humedad
    00:00 +27°C° 0 mm 1 mps 661 mmHg 34%
    01:00 +26°C° 0 mm 1 mps 660 mmHg 37%
    02:00 +26°C° 0 mm 1 mps 660 mmHg 40%
    03:00 +25°C° 0 mm 1 mps 660 mmHg 41%
    04:00 +22°C° 0 mm 0 mps 660 mmHg 43%
    05:00 +22°C° 0 mm 0 mps 660 mmHg 45%
    06:00 +26°C° 0 mm 1 mps 660 mmHg 41%
    07:00 +28°C° 0 mm 1 mps 661 mmHg 36%
    08:00 +30°C° 0 mm 1 mps 662 mmHg 32%
    09:00 +32°C° 0 mm 2 mps 662 mmHg 29%
    10:00 +34°C° 0 mm 2 mps 662 mmHg 26%
    11:00 +36°C° 0 mm 3 mps 662 mmHg 22%
    12:00 +37°C° 0 mm 3 mps 661 mmHg 21%
    13:00 +37°C° 0 mm 3 mps 661 mmHg 19%
    14:00 +38°C° 0 mm 4 mps 660 mmHg 17%
    15:00 +37°C° 0 mm 4 mps 660 mmHg 17%
    16:00 +37°C° 0 mm 4 mps 660 mmHg 17%
    17:00 +36°C° 0 mm 4 mps 659 mmHg 18%
    18:00 +34°C° 0 mm 3 mps 660 mmHg 20%
    19:00 +31°C° 0 mm 3 mps 660 mmHg 23%
    20:00 +30°C° 0 mm 2 mps 660 mmHg 26%
    21:00 +29°C° 0 mm 1 mps 661 mmHg 28%
    22:00 +28°C° 0 mm 1 mps 661 mmHg 30%
    23:00 +27°C° 0 mm 1 mps 661 mmHg 32%

    25 Abril, Jueves

    Tiempo Temperatura Precipitaciones Viento Presión Humedad
    00:00 +26°C° 0 mm 1 mps 660 mmHg 35%
    01:00 +25°C° 0 mm 1 mps 660 mmHg 37%
    02:00 +25°C° 0 mm 1 mps 659 mmHg 40%
    03:00 +24°C° 0 mm 1 mps 659 mmHg 41%
    04:00 +21°C° 0 mm 0 mps 659 mmHg 43%
    05:00 +21°C° 0 mm 0 mps 660 mmHg 45%
    06:00 +23°C° 0 mm 0 mps 661 mmHg 40%
    07:00 +27°C° 0 mm 1 mps 662 mmHg 35%
    08:00 +29°C° 0 mm 1 mps 663 mmHg 29%
    09:00 +31°C° 0 mm 1 mps 663 mmHg 25%
    10:00 +34°C° 0 mm 2 mps 663 mmHg 21%
    11:00 +36°C° 0 mm 2 mps 663 mmHg 17%
    12:00 +37°C° 0 mm 3 mps 662 mmHg 15%
    13:00 +37°C° 0 mm 3 mps 662 mmHg 13%
    14:00 +38°C° 0 mm 3 mps 661 mmHg 11%
    15:00 +38°C° 0 mm 3 mps 661 mmHg 11%
    16:00 +37°C° 0 mm 3 mps 661 mmHg 11%
    17:00 +37°C° 0 mm 3 mps 661 mmHg 11%
    18:00 +34°C° 0 mm 2 mps 662 mmHg 14%
    19:00 +31°C° 0 mm 2 mps 662 mmHg 16%
    20:00 +29°C° 0 mm 2 mps 663 mmHg 18%
    21:00 +28°C° 0 mm 1 mps 663 mmHg 19%
    22:00 +28°C° 0 mm 1 mps 663 mmHg 19%
    23:00 +27°C° 0 mm 1 mps 663 mmHg 20%

    26 Abril, Viernes

    Tiempo Temperatura Precipitaciones Viento Presión Humedad
    00:00 +26°C° 0 mm 1 mps 662 mmHg 23%
    01:00 +25°C° 0 mm 1 mps 662 mmHg 26%
    02:00 +25°C° 0 mm 1 mps 661 mmHg 28%
    03:00 +24°C° 0 mm 1 mps 662 mmHg 33%
    04:00 +24°C° 0 mm 1 mps 662 mmHg 38%
    05:00 +23°C° 0 mm 1 mps 662 mmHg 43%
    06:00 +26°C° 0 mm 1 mps 663 mmHg 41%
    07:00 +28°C° 0 mm 1 mps 664 mmHg 40%
    08:00 +30°C° 0 mm 2 mps 665 mmHg 38%
    09:00 +32°C° 0 mm 2 mps 665 mmHg 33%
    10:00 +35°C° 0 mm 2 mps 664 mmHg 28%
    11:00 +37°C° 0 mm 2 mps 664 mmHg 23%
    12:00 +38°C° 0 mm 2 mps 664 mmHg 21%
    13:00 +39°C° 0 mm 2 mps 663 mmHg 19%
    14:00 +40°C° 0 mm 2 mps 663 mmHg 16%
    15:00 +39°C° 0 mm 2 mps 663 mmHg 17%
    16:00 +38°C° 0 mm 2 mps 663 mmHg 17%
    17:00 +37°C° 0 mm 2 mps 663 mmHg 18%
    18:00 +35°C° 0 mm 3 mps 663 mmHg 22%
    19:00 +33°C° 0 mm 3 mps 664 mmHg 26%
    20:00 +31°C° 0 mm 3 mps 664 mmHg 31%
    21:00 +29°C° 0 mm 3 mps 664 mmHg 33%
    22:00 +28°C° 0 mm 2 mps 664 mmHg 36%
    23:00 +27°C° 0 mm 2 mps 663 mmHg 38%

    27 Abril, Sábado

    Tiempo Temperatura Precipitaciones Viento Presión Humedad
    00:00 +27°C° 0 mm 1 mps 663 mmHg 40%
    01:00 +26°C° 0 mm 1 mps 662 mmHg 41%
    02:00 +25°C° 0 mm 1 mps 662 mmHg 43%
    03:00 +25°C° 0 mm 1 mps 662 mmHg 45%
    04:00 +24°C° 0 mm 1 mps 662 mmHg 46%
    05:00 +24°C° 0 mm 1 mps 662 mmHg 47%
    06:00 +26°C° 0 mm 1 mps 662 mmHg 42%
    07:00 +28°C° 0 mm 1 mps 663 mmHg 38%
    08:00 +30°C° 0 mm 1 mps 664 mmHg 33%
    09:00 +32°C° 0 mm 1 mps 664 mmHg 29%
    10:00 +34°C° 0 mm 1 mps 663 mmHg 25%
    11:00 +37°C° 0 mm 2 mps 663 mmHg 21%
    12:00 +38°C° 0 mm 2 mps 663 mmHg 20%
    13:00 +38°C° 0 mm 2 mps 662 mmHg 19%
    14:00 +39°C° 0 mm 3 mps 661 mmHg 18%
    15:00 +38°C° 0 mm 3 mps 661 mmHg 18%
    16:00 +38°C° 0 mm 3 mps 661 mmHg 19%
    17:00 +37°C° 0 mm 3 mps 661 mmHg 20%
    18:00 +36°C° 0 mm 2 mps 662 mmHg 21%
    19:00 +35°C° 0 mm 2 mps 662 mmHg 23%
    20:00 +34°C° 0 mm 2 mps 663 mmHg 24%
    21:00 +32°C° 0 mm 2 mps 663 mmHg 27%
    22:00 +31°C° 0 mm 2 mps 663 mmHg 29%
    23:00 +30°C° 0 mm 2 mps 663 mmHg 32%
    Mostrar más